FW5619 Weather Reports


Display with metric or nautical units.
time (UTC)temp
F
wind
direction
speed
MPH
gust
MPH
rain 1hr
in
rain 24hr
in
rain mn
in
humidity
%
barometer
mb
20260504151015 59 230 8.0 14.0 0.00 0.00 0.00 67 1015.3
20260504150514 59 286 6.0 14.0 0.00 0.00 0.00 66 1015.2
20260504141010 58 260 8.0 17.0 0.00 0.00 0.00 64 1015.3
20260504140510 58 219 8.0 19.0 0.00 0.00 0.00 62 1015.3
20260504130502 56 229 9.0 18.0 0.00 0.00 0.00 65 1015.9
20260504110544 52 249 9.0 19.0 0.00 0.00 0.00 67 1016.2
20260504100537 50 231 4.0 9.0 0.00 0.00 0.00 74 1016.3
20260504081537 51 360 5.0 11.0 0.00 0.00 0.00 62 1015.7
20260504081021 51 360 5.0 11.0 0.00 0.00 0.00 61 1015.6
20260504080521 51 360 5.0 10.0 0.00 0.00 0.00 61 1015.5
20260504050557 53 246 8.0 14.0 0.00 0.00 0.00 64 1014.7
20260504045556 53 246 7.0 12.0 0.00 0.00 0.00 63 1014.7
20260504045054 53 244 7.0 13.0 0.00 0.00 0.00 63 1014.7
20260504044554 53 248 8.0 13.0 0.00 0.00 0.00 62 1014.5
20260504044054 53 244 7.0 12.0 0.00 0.00 0.00 62 1014.6
20260504043553 53 244 7.0 15.0 0.00 0.00 0.00 62 1014.5
20260504043057 52 243 8.0 15.0 0.00 0.00 0.00 62 1014.6
20260504042551 53 243 7.0 11.0 0.00 0.00 0.00 62 1014.6
20260504042052 53 243 6.0 14.0 0.00 0.00 0.00 61 1014.5
20260504041550 53 242 9.0 14.0 0.00 0.00 0.00 60 1014.5
20260504041053 53 246 7.0 13.0 0.00 0.00 0.00 60 1014.4
20260504040547 53 244 7.0 13.0 0.00 0.00 0.00 59 1014.4
20260504040047 53 246 7.0 13.0 0.00 0.00 0.00 59 1014.3
20260504035547 53 247 7.0 13.0 0.00 0.00 0.00 59 1014.1
20260504035047 53 246 8.0 12.0 0.00 0.00 0.00 60 1014.3
20260504034548 53 246 6.0 11.0 0.00 0.00 0.00 61 1014.3
20260504034045 53 360 4.0 11.0 0.00 0.00 0.00 65 1014.3
20260504033548 53 360 6.0 11.0 0.00 0.00 0.00 60 1014.3
20260504033046 53 360 6.0 12.0 0.00 0.00 0.00 60 1014.3
20260504032545 53 360 9.0 12.0 0.00 0.00 0.00 60 1014.4
20260504032048 53 360 6.0 11.0 0.00 0.00 0.00 60 1014.3
20260504031545 53 360 6.0 9.0 0.00 0.00 0.00 60 1014.4
20260504031044 53 259 6.0 11.0 0.00 0.00 0.00 59 1014.4
20260504030543 53 259 6.0 11.0 0.00 0.00 0.00 58 1014.4
20260504030044 54 257 5.0 13.0 0.00 0.00 0.00 57 1014.3
20260504025544 54 258 5.0 11.0 0.00 0.00 0.00 58 1014.2
20260504025044 54 258 6.0 10.0 0.00 0.00 0.00 58 1014.2
20260504024545 54 258 6.0 12.0 0.00 0.00 0.00 58 1014.3
20260504024044 54 258 7.0 12.0 0.00 0.00 0.00 58 1014.3
20260504023543 54 259 7.0 10.0 0.00 0.00 0.00 57 1014.2
20260504023041 54 259 7.0 10.0 0.00 0.00 0.00 56 1014.3
20260504022542 54 260 7.0 10.0 0.00 0.00 0.00 55 1014.2
20260504022041 54 261 6.0 10.0 0.00 0.00 0.00 56 1014.2
20260504021541 54 261 6.0 10.0 0.00 0.00 0.00 57 1014.2
20260504021042 54 262 6.0 10.0 0.00 0.00 0.00 57 1014.2
20260504020540 54 263 6.0 11.0 0.00 0.00 0.00 57 1014.1
20260504020115 54 267 6.0 11.0 0.00 0.00 0.00 58 1014.2
20260504015540 54 274 6.0 9.0 0.00 0.00 0.00 63 1014.2
20260504015039 54 281 5.0 7.0 0.00 0.00 0.00 60 1014.1
20260504014553 55 283 2.0 8.0 0.00 0.00 0.00 53 1014.1
20260504014037 55 283 3.0 8.0 0.00 0.00 0.00 52 1014.1
20260504013536 54 284 5.0 8.0 0.00 0.00 0.00 52 1014.0
20260504013045 55 286 2.0 5.0 0.00 0.00 0.00 52 1014.0
20260504012538 55 286 2.0 6.0 0.00 0.00 0.00 49 1014.0
20260504012035 55 286 3.0 5.0 0.00 0.00 0.00 48 1013.9
20260504011535 55 286 2.0 5.0 0.00 0.00 0.00 47 1013.8
20260504011035 55 286 3.0 7.0 0.00 0.00 0.00 46 1013.7
20260504010535 55 286 3.0 7.0 0.00 0.00 0.00 46 1013.6
20260504010037 55 294 4.0 7.0 0.00 0.00 0.00 47 1013.6
20260504005533 55 298 3.0 5.0 0.00 0.00 0.00 47 1013.5
20260504005032 56 298 2.0 4.0 0.00 0.00 0.00 39 1013.4
20260504004539 56 298 1.0 4.0 0.00 0.00 0.00 36 1013.4
20260504004032 56 298 2.0 4.0 0.00 0.00 0.00 36 1013.3
20260504003532 56 298 0.0 4.0 0.00 0.00 0.00 36 1013.3
20260504003031 57 360 1.0 4.0 0.00 0.00 0.00 36 1013.2
20260504002532 57 298 1.0 7.0 0.00 0.00 0.00 35 1013.1
20260504002032 57 298 2.0 7.0 0.00 0.00 0.00 34 1013.1
20260504001541 57 298 2.0 6.0 0.00 0.00 0.00 34 1012.9
20260504001033 58 300 3.0 6.0 0.00 0.00 0.00 34 1012.9
20260504000534 58 302 2.0 9.0 0.00 0.00 0.00 35 1012.9
20260504000032 58 301 3.0 9.0 0.00 0.00 0.00 34 1012.7
20260503235531 58 302 5.0 12.0 0.00 0.00 0.00 32 1012.7
20260503235031 58 302 6.0 12.0 0.00 0.00 0.00 31 1012.6
20260503234530 59 269 6.0 15.0 0.00 0.00 0.00 32 1012.5
20260503234031 59 305 7.0 17.0 0.00 0.00 0.00 32 1012.5
20260503233530 59 311 10.0 17.0 0.00 0.00 0.00 31 1012.3
20260503233035 59 321 8.0 12.0 0.00 0.00 0.00 31 1012.3
20260503232530 59 295 6.0 11.0 0.00 0.00 0.00 31 1012.3
20260503232030 59 281 7.0 13.0 0.00 0.00 0.00 32 1012.2
20260503231530 59 296 6.0 17.0 0.00 0.00 0.00 30 1012.2
20260503231029 59 345 8.0 17.0 0.00 0.00 0.00 29 1012.2
20260503230530 59 303 9.0 16.0 0.00 0.00 0.00 31 1012.1
20260503230029 59 325 8.0 16.0 0.00 0.00 0.00 31 1012.1
20260503225528 59 296 9.0 18.0 0.00 0.00 0.00 30 1012.2
20260503225030 59 317 9.0 19.0 0.00 0.00 0.00 30 1012.2
20260503224527 59 321 10.0 20.0 0.00 0.00 0.00 30 1012.2
20260503224029 59 299 10.0 20.0 0.00 0.00 0.00 31 1012.1
20260503223528 59 249 9.0 22.0 0.00 0.00 0.00 30 1012.1
20260503223027 59 281 13.0 22.0 0.00 0.00 0.00 31 1012.1
20260503222526 59 306 10.0 23.0 0.00 0.00 0.00 30 1012.1
20260503222026 59 255 9.0 23.0 0.00 0.00 0.00 31 1012.1
20260503221526 59 312 12.0 23.0 0.00 0.00 0.00 30 1012.1
20260503221025 59 286 13.0 21.0 0.00 0.00 0.00 30 1012.1
20260503220526 59 290 10.0 21.0 0.00 0.00 0.00 30 1012.0
20260503220026 59 301 12.0 19.0 0.00 0.00 0.00 31 1012.0
20260503215525 59 302 11.0 19.0 0.00 0.00 0.00 31 1012.0
20260503215023 59 288 13.0 23.0 0.00 0.00 0.00 30 1012.0
20260503214523 59 288 14.0 23.0 0.00 0.00 0.00 31 1012.1
20260503214026 59 308 13.0 30.0 0.00 0.00 0.00 30 1012.1
20260503213523 59 311 12.0 30.0 0.00 0.00 0.00 31 1012.0
20260503213022 59 295 12.0 23.0 0.00 0.00 0.00 32 1011.9
20260503212522 59 298 11.0 31.0 0.00 0.00 0.00 31 1011.9
20260503212022 59 306 12.0 31.0 0.00 0.00 0.00 31 1011.9
20260503211521 59 305 14.0 27.0 0.00 0.00 0.00 32 1011.7
20260503211021 58 306 16.0 27.0 0.00 0.00 0.00 31 1011.8
20260503210525 59 303 16.0 25.0 0.00 0.00 0.00 31 1011.7
20260503210020 58 319 12.0 25.0 0.00 0.00 0.00 32 1011.5
20260503205520 59 313 9.0 29.0 0.00 0.00 0.00 32 1011.7
20260503205020 59 297 15.0 29.0 0.00 0.00 0.00 31 1011.8
20260503204519 58 302 10.0 22.0 0.00 0.00 0.00 32 1011.7
20260503204018 58 286 13.0 24.0 0.00 0.00 0.00 33 1011.8
20260503203517 58 304 12.0 24.0 0.00 0.00 0.00 33 1011.8
20260503203040 58 298 9.0 21.0 0.00 0.00 0.00 34 1011.7
20260503202517 58 350 13.0 21.0 0.00 0.00 0.00 33 1011.7
20260503202017 58 309 11.0 27.0 0.00 0.00 0.00 35 1011.8
20260503201517 58 298 17.0 26.0 0.00 0.00 0.00 33 1011.7
20260503201016 58 284 10.0 22.0 0.00 0.00 0.00 34 1011.6
20260503200516 58 347 11.0 25.0 0.00 0.00 0.00 34 1011.7
20260503200016 58 306 16.0 26.0 0.00 0.00 0.00 34 1011.8
20260503195516 57 311 16.0 26.0 0.00 0.00 0.00 35 1011.9
20260503195014 58 320 11.0 21.0 0.00 0.00 0.00 35 1011.9
20260503194531 58 304 9.0 18.0 0.00 0.00 0.00 36 1011.8
20260503194013 57 298 7.0 21.0 0.00 0.00 0.00 36 1011.8
20260503193514 57 315 11.0 21.0 0.00 0.00 0.00 37 1012.0
20260503193011 57 288 10.0 21.0 0.00 0.00 0.00 37 1012.0
20260503192511 56 302 13.0 25.0 0.00 0.00 0.00 38 1012.0
20260503192011 56 304 11.0 24.0 0.00 0.00 0.00 38 1012.2
20260503191511 56 312 14.0 24.0 0.00 0.00 0.00 39 1012.2
20260503191011 56 313 11.0 21.0 0.00 0.00 0.00 38 1012.2
20260503190510 56 293 12.0 28.0 0.00 0.00 0.00 39 1012.4
20260503190013 56 272 14.0 28.0 0.00 0.00 0.00 38 1012.5
20260503185513 55 281 9.0 23.0 0.00 0.00 0.00 39 1012.3
20260503185007 55 316 9.0 23.0 0.00 0.00 0.00 39 1012.5
20260503184511 55 309 14.0 24.0 0.00 0.00 0.00 40 1012.6
20260503184007 55 277 17.0 24.0 0.00 0.00 0.00 38 1012.6
20260503183506 56 296 9.0 27.0 0.00 0.00 0.00 38 1012.5
20260503183006 55 298 14.0 27.0 0.00 0.00 0.00 40 1012.4
20260503182507 54 301 13.0 24.0 0.00 0.00 0.00 39 1012.3
20260503182006 54 298 12.0 19.0 0.00 0.00 0.00 40 1012.4
20260503181506 54 308 12.0 19.0 0.00 0.00 0.00 39 1012.5
20260503181005 54 301 8.0 19.0 0.00 0.00 0.00 39 1012.4
20260503180505 55 332 11.0 24.0 0.00 0.00 0.00 39 1012.3
20260503180008 55 324 13.0 25.0 0.00 0.00 0.00 38 1012.2
20260503175504 55 261 14.0 25.0 0.00 0.00 0.00 39 1012.0
20260503175004 55 310 13.0 23.0 0.00 0.00 0.00 38 1012.2
20260503174503 55 311 9.0 20.0 0.00 0.00 0.00 38 1012.2
20260503174004 54 335 12.0 23.0 0.00 0.00 0.00 40 1012.2
20260503173504 54 317 13.0 23.0 0.00 0.00 0.00 40 1012.3
20260503173004 53 313 13.0 22.0 0.00 0.00 0.00 39 1012.4
20260503172504 54 338 11.0 24.0 0.00 0.00 0.00 38 1012.2
20260503172008 54 46 10.0 24.0 0.00 0.00 0.00 38 1012.3
20260503171504 54 315 11.0 25.0 0.00 0.00 0.00 40 1012.3
20260503171003 54 305 18.0 25.0 0.00 0.00 0.00 37 1012.4
20260503170502 54 295 11.0 21.0 0.00 0.00 0.00 38 1012.3